This is the latest recevied weather packets stored in our database for station/object KI4FRU. If no packets are shown the sender has not sent any weather packets the latest 10 day(s).
| Time | Temp. | Humidity | Pressure | Rain* | Wind** | Luminosity | Snow |
|---|---|---|---|---|---|---|---|
| 1778118349 | 18.89° C | 99% | 1051.7 hPa | 3.05 mm | - | 0 W/m² | - |
| 1778118045 | 18.89° C | 99% | 1052.2 hPa | 4.83 mm | - | 0 W/m² | - |
| 1778117742 | 19.44° C | 99% | 1052.1 hPa | 7.11 mm | - | 0 W/m² | - |
| 1778117439 | 19.44° C | 99% | 1052.3 hPa | 4.83 mm | - | 0 W/m² | - |
| 1778117136 | 19.44° C | 99% | 1052.4 hPa | 0 mm | - | 0 W/m² | - |
| 1778116827 | 18.89° C | 99% | 1051.8 hPa | 0 mm | - | 0 W/m² | - |
| 1778116525 | 19.44° C | 99% | 1051.6 hPa | 0 mm | - | 0 W/m² | - |
| 1778116220 | 19.44° C | 99% | 1051.6 hPa | 0 mm | - | 0 W/m² | - |
| 1778115914 | 19.44° C | 99% | 1051.5 hPa | 0 mm | - | 0 W/m² | - |
| 1778115606 | 19.44° C | 99% | 1051.3 hPa | 0 mm | - | 0 W/m² | - |
| 1778115304 | 19.44° C | 99% | 1050.9 hPa | 1.27 mm | - | 0 W/m² | - |
| 1778114999 | 19.44° C | 99% | 1051.3 hPa | 1.27 mm | - | 0 W/m² | - |
| 1778114696 | 19.44° C | 99% | 1051.2 hPa | 1.78 mm | - | 0 W/m² | - |
| 1778114394 | 19.44° C | 99% | 1050.8 hPa | 3.05 mm | - | 0 W/m² | - |
| 1778114083 | 19.44° C | 99% | 1051.3 hPa | 3.05 mm | - | 0 W/m² | - |
| 1778113778 | 19.44° C | 99% | 1051.5 hPa | 3.56 mm | - | 0 W/m² | - |
| 1778113474 | 20° C | 99% | 1051.5 hPa | 1.78 mm | - | 0 W/m² | - |
| 1778113171 | 20° C | 99% | 1051.5 hPa | 1.27 mm | - | 0 W/m² | - |
| 1778112868 | 20° C | 99% | 1051.6 hPa | 4.32 mm | - | 0 W/m² | - |
| 1778112566 | 20° C | 99% | 1052 hPa | 3.05 mm | - | 0 W/m² | - |
| 1778112261 | 20° C | 99% | 1052 hPa | 0 mm | - | 1 W/m² | - |
| 1778111952 | 20° C | 99% | 1051.9 hPa | 0 mm | - | 1 W/m² | - |
| 1778111649 | 20° C | 99% | 1051.7 hPa | 0 mm | - | 1 W/m² | - |
| 1778111344 | 20° C | 99% | 1051.3 hPa | 0 mm | - | 2 W/m² | - |
| 1778111043 | 20° C | 99% | 1051.2 hPa | 0 mm | - | 3 W/m² | - |
* Rain latest hour (hover to see other rain measurements)
** Current wind speed in m/s (hover to see current wind gust speed)